Location: Recife
(8.0585°S, 34.8848°W)
Time: 21:12:51
(UTC-03:00)

Explorer 11/Cluster Stage 4 - Pass Details

Date: 22 April 2026
Orbit: 463 x 1174 km, 28.8° (Epoch: 16 May)

Event Time Altitude Azimuth Distance (km) Brightness Sun altitude
Rises 16:44:32 0° 296° (WNW) 4,014 12.2 6.4°
Reaches altitude 10° 16:47:29 10° 295° (WNW) 3,015 11.8 5.6°
Maximum altitude 16:55:01 76° 210° (SSW) 1,068 7.4 3.8°
Drops below altitude 10° 17:01:28 10° 124° (SE) 2,604 8.7 2.3°
Sets 17:03:52 0° 122° (ESE) 3,441 9.3 1.7°
